Weather History for Emporia, KS

Change the Weather History Date:

Saturday, April 5, 2014

  Actual Average Record
Temperature  
Mean Temperature 45 °F 52 °F  
Max Temperature 62 °F 65 °F 82 °F (2006)
Min Temperature 27 °F 40 °F 27 °F (2007)
Degree Days  
Heating Degree Days 20 13  
Month to date heating degree days 94 68  
Since 1 July heating degree days 5158 4500  
Cooling Degree Days 0 0  
Month to date cooling degree days 0 0  
Year to date cooling degree days 0 2  
Moisture  
Dew Point 28 °F    
Average Humidity 59    
Maximum Humidity 92    
Minimum Humidity 25    
Precipitation  
Precipitation 0.00 in 0.06 in 0.65 in (2005)
Month to date precipitation 0.05 0.29  
Year to date precipitation 0.95 4.68  
Sea Level Pressure  
Sea Level Pressure 30.11 in    
Wind  
Wind Speed 10 mph (SE)    
Max Wind Speed 18 mph    
Max Gust Speed 25 mph    
Visibility 6 miles    
Events      
T = Trace of Precipitation, MM = Missing Value Source: NWS Daily Summary

Daily Weather History Graph

Daily Weather History Graph

Search for Another Location

Airport:

Trip Planner

Search our weather history database for the weather conditions in past years. The results will help you decide how hot, cold, wet, or windy it might be!

Date:

Astronomy

Apr. 05, 2014 Rise Set
Actual Time 7:03 AM CDT 7:51 PM CDT
Civil Twilight 6:36 AM CDT 8:18 PM CDT
Nautical Twilight 6:05 AM CDT 8:50 PM CDT
Astronomical Twilight 5:32 AM CDT 9:23 PM CDT
Moon 11:15 AM CDT (4/5) 12:59 AM CDT (4/5)
Length of Visible Light 13h 41m
Length of Day
12h 48m
Waxing Crescent, 34% of the Moon is Illuminated
Apr 5
Waxing Crescent
Apr 7
First Quarter
Apr 15
Full
Apr 22
Last Quarter
Apr 29
New

Hourly Weather History & Observations

Time (CDT) Temp. Windchill Dew Point Humidity Pressure Visibility Wind Dir Wind Speed Gust Speed Precip Events Conditions
12:53 AM 35.1 °F 32.2 °F 26.1 °F 70% 30.19 in 8.0 mi ENE 3.5 mph - N/A   Clear
1:53 AM 30.0 °F 24.1 °F 25.0 °F 82% 30.18 in 7.0 mi ESE 5.8 mph - N/A   Clear
2:53 AM 30.0 °F 23.2 °F 25.0 °F 82% 30.17 in 6.0 mi ESE 6.9 mph - N/A   Haze
3:53 AM 30.0 °F 22.4 °F 25.0 °F 82% 30.17 in 6.0 mi SE 8.1 mph - N/A   Haze
4:53 AM 30.0 °F 23.2 °F 25.0 °F 82% 30.17 in 7.0 mi SSE 6.9 mph - N/A   Clear
5:53 AM 27.0 °F 19.5 °F 24.1 °F 89% 30.18 in 6.0 mi South 6.9 mph - N/A   Clear
6:53 AM 28.0 °F 20.8 °F 25.0 °F 88% 30.18 in 6.0 mi SSE 6.9 mph - N/A   Clear
7:53 AM 32.0 °F 24.8 °F 28.0 °F 85% 30.20 in 5.0 mi SSE 8.1 mph - N/A   Clear
8:53 AM 39.0 °F 31.8 °F 32.0 °F 76% 30.18 in 7.0 mi SE 11.5 mph - N/A   Clear
9:53 AM 45.0 °F 39.3 °F 30.9 °F 58% 30.18 in 9.0 mi SSE 11.5 mph - N/A   Clear
10:53 AM 48.9 °F - 30.9 °F 50% 30.18 in 10.0 mi SSE 13.8 mph - N/A   Clear
11:53 AM 52.0 °F - 30.0 °F 43% 30.17 in 10.0 mi SSE 11.5 mph - N/A   Clear
12:53 PM 55.0 °F - 28.0 °F 35% 30.14 in 9.0 mi SSE 12.7 mph - N/A   Clear
1:53 PM 57.0 °F - 27.0 °F 32% 30.11 in 8.0 mi SSE 8.1 mph 17.3 mph N/A   Clear
2:53 PM 60.1 °F - 26.1 °F 27% 30.09 in 10.0 mi South 11.5 mph 17.3 mph N/A   Clear
3:53 PM 61.0 °F - 25.0 °F 25% 30.04 in 7.0 mi ESE 15.0 mph 21.9 mph N/A   Clear
4:39 PM 62.1 °F - 28.0 °F 28% 30.01 in 2.5 mi SE 11.5 mph 19.6 mph N/A   Haze
4:53 PM 62.1 °F - 28.0 °F 28% 30.02 in 2.5 mi SE 12.7 mph 25.3 mph N/A   Haze
5:31 PM 60.1 °F - 27.0 °F 28% 30.00 in 3.0 mi SE 15.0 mph 23.0 mph N/A   Haze
5:53 PM 60.1 °F - 27.0 °F 28% 30.02 in 5.0 mi SE 12.7 mph - N/A   Haze
6:53 PM 57.0 °F - 28.0 °F 33% 30.02 in 7.0 mi SE 11.5 mph - N/A   Mostly Cloudy
7:53 PM 55.0 °F - 28.0 °F 35% 30.01 in 7.0 mi SE 10.4 mph - N/A   Clear
8:53 PM 51.1 °F - 28.9 °F 43% 30.03 in 6.0 mi SE 6.9 mph - N/A   Haze
9:53 PM 51.1 °F - 30.0 °F 44% 30.03 in 3.0 mi SE 8.1 mph - N/A   Haze
10:53 PM 50.0 °F - 30.9 °F 48% 30.03 in 4.0 mi SE 9.2 mph - N/A   Haze
11:53 PM 48.9 °F - 30.9 °F 50% 30.04 in 4.0 mi SSE 8.1 mph - N/A   Haze